Terug naar catalogus

CZ-6A DEB

ActiefSSO
NORAD 55543·DEBRIS·🇨🇳 China

Gelanceerd Nov 11, 2022 vanaf Taiyuan Satellite Launch Center

Loading…

Volgende Passages (komende 24 uur)

TLE

VersSource: Space-Track

Epoch: Sep 14, 2026, 01:08 UTC

1 55543U 22151YR  26257.04785722  .00004027  00000-0  76831-3 0  9991
2 55543  98.5128 299.6919 0127115  34.0922 326.8360 14.59487483197254

Volg CZ-6A DEB in realtime met AllMySat

Download on the App Store